Temperature
17 16 16 16 16 16 16 16 16 14 14 14 13 13 13 13 13 13 13 13 13 13 13 13 13 13 13 13 12 12 12 12 12 12 12 12 12 12
16 16 16 16 16 16 16 16 15 15 14 13 13 13 13 13 13 13 13 13 13 13 13 13 12 12 12 12 12 12 12 12 12 12 12 12 11 11
16 16 16 16 16 16 15 15 15 15 14 14 13 13 13 13 12 12 12 12 12 12 12 12 12 12 12 12 12 12 11 11 11 11 11 11 11 11
16 16 16 16 16 15 15 15 15 14 14 14 13 13 12 12 12 12 12 12 12 12 12 12 11 11 11 11 11 11 11 11 11 11 10 10 10 10
16 16 16 16 15 15 15 15 14 14 14 14 13 12 12 12 12 12 12 12 11 11 11 11 11 11 11 11 11 11 11 10 10 10 10 10 9 9
16 16 15 15 15 15 15 14 14 14 13 13 13 12 12 11 12 11 11 11 11 11 11 11 11 10 10 10 10 10 10 10 9 9 9 9 9 9
16 15 15 15 15 15 14 14 14 14 13 13 12 12 12 11 11 11 11 11 11 10 11 10 10 10 10 10 10 10 9 9 9 9 9 9 9 8
15 15 15 15 15 14 14 14 13 13 13 13 12 12 11 11 11 11 11 10 10 10 10 10 10 10 10 9 9 9 9 9 9 9 8 8 8 8
15 15 15 15 14 14 14 13 13 13 13 12 12 12 12 11 11 11 10 10 10 10 10 10 10 10 9 9 9 9 9 9 8 8 8 8 8 8
15 14 14 14 14 14 13 13 13 12 12 12 12 12 11 11 11 11 10 10 10 10 10 10 9 9 9 9 9 9 9 8 8 8 8 8 7 7
14 14 14 14 13 13 13 13 12 12 12 12 11 11 11 11 11 10 10 10 10 10 9 9 9 9 9 9 9 8 8 8 8 8 7 7 7 7
14 14 13 13 13 13 13 13 12 12 12 12 11 11 11 11 10 10 10 10 10 9 9 9 9 9 8 8 8 8 8 8 8 8 7 7 7 7
14 13 13 13 13 13 12 12 12 12 12 11 11 11 11 10 10 10 10 10 9 9 9 9 9 9 8 8 8 8 8 8 8 7 7 7 7 7
14 13 13 13 12 12 12 12 11 11 11 11 11 10 10 10 10 10 9 9 9 9 9 9 9 9 8 8 8 8 8 8 7 7 7 7 7 6
13 13 12 12 12 12 11 11 11 11 11 11 10 10 10 10 9 9 9 9 9 9 9 9 9 8 8 8 8 8 8 7 7 7 7 7 7 6
13 12 12 12 12 11 11 11 11 11 10 10 10 10 10 9 9 9 9 9 9 9 9 8 8 8 8 8 8 8 8 7 7 7 7 7 6 6
12 12 12 12 11 11 11 10 10 10 10 10 10 10 9 9 9 9 9 9 8 8 8 8 8 8 8 8 8 8 7 7 7 7 7 7 6 6
12 12 12 11 11 11 10 10 10 10 10 10 9 9 9 9 9 9 9 8 8 8 8 8 8 8 8 8 8 7 7 7 7 7 6 6 6 6
12 12 11 11 11 10 10 10 10 10 10 9 9 9 9 9 9 8 8 8 8 8 8 8 8 8 7 7 7 7 7 7 7 6 6 6 6 6
12 11 11 11 11 10 10 10 10 9 9 9 9 9 9 9 8 8 8 8 8 8 8 8 8 7 7 7 7 7 7 7 6 6 6 6 6 6
11 11 11 11 10 10 10 10 10 9 9 9 9 9 9 9 8 8 8 8 8 8 8 8 7 7 7 7 7 7 7 7 6 6 6 6 6 6
11 11 11 10 10 10 10 10 9 9 9 9 9 9 8 8 8 8 8 8 8 7 7 7 7 7 7 7 7 7 7 6 6 6 6 6 5 5
11 11 11 10 10 10 10 9 9 9 9 9 9 8 8 8 8 8 8 7 7 7 7 7 7 7 7 7 6 6 6 6 6 6 6 6 5 5
Wind_Speed
1 1 1 0 1 2 3 4 4 3 1 0 1 2 4 5 6 7 8 9 9 9 8 8 8 8 8 8 8 8 8 8 9 8 8 8 8 8
2 2 2 1 2 2 2 2 3 4 2 1 1 1 3 5 7 8 8 10 10 9 9 9 9 9 9 9 9 10 10 10 10 10 10 9 9 9
2 3 2 3 3 2 3 3 3 4 5 2 2 2 3 4 5 7 8 7 7 9 9 9 9 10 10 10 10 10 10 10 10 10 10 10 9 9
2 3 3 3 4 3 3 3 3 3 5 5 2 2 3 2 3 4 5 6 6 8 9 8 9 9 9 9 9 9 9 9 9 9 9 8 8 8
3 4 3 4 4 3 4 3 3 4 4 5 3 2 2 2 3 3 3 3 4 5 6 7 7 7 7 7 7 8 8 9 9 8 8 8 7 7
4 4 4 4 4 4 4 4 4 5 5 5 4 2 2 1 2 2 2 1 1 2 4 4 5 5 5 5 5 6 6 7 7 7 7 6 6 6
5 4 5 6 6 4 4 4 5 5 5 5 4 2 2 2 1 1 1 1 1 1 2 1 2 2 1 1 2 3 4 5 5 5 5 4 4 4
4 3 4 5 5 6 7 7 7 7 6 5 3 3 2 2 1 2 2 2 0 1 1 0 1 0 2 2 2 3 3 3 3 3 2 2 2 2
4 3 4 4 5 5 7 7 6 6 7 6 5 4 4 3 3 2 2 2 2 2 2 0 0 1 3 3 3 4 5 5 4 3 3 2 1 0
4 4 5 4 4 5 6 5 4 3 2 4 4 4 4 4 4 4 4 2 1 0 2 1 1 1 2 4 5 5 6 6 5 5 5 4 2 2
4 4 5 5 6 8 7 6 5 3 4 5 4 4 4 4 5 3 3 3 0 1 1 2 1 1 1 2 5 6 6 7 7 7 6 6 5 4
3 4 5 6 7 7 6 6 5 2 2 4 5 4 3 3 4 4 4 3 1 1 1 2 1 1 0 2 2 4 5 6 7 7 8 7 6 4
4 2 2 6 7 7 6 4 5 4 3 4 3 3 2 2 1 2 3 3 3 2 2 2 1 1 2 1 2 3 4 4 5 6 8 9 8 7
4 3 3 6 6 6 4 4 6 6 4 3 3 2 1 1 1 0 1 1 2 3 3 3 2 3 2 1 2 2 3 4 5 5 7 8 9 10
4 6 6 6 5 4 4 6 5 4 3 3 2 1 1 1 0 1 2 2 2 2 1 2 3 2 2 3 2 2 2 3 5 4 5 5 6 6
5 5 6 6 4 3 3 3 3 3 3 3 2 1 0 1 0 0 0 1 1 3 4 2 2 3 2 2 2 2 2 3 3 4 4 4 6 8
6 4 3 3 2 2 2 1 2 2 2 1 1 1 0 0 1 0 0 1 0 1 3 3 2 1 2 2 1 2 2 2 3 2 2 3 4 6
7 4 4 3 3 3 2 1 1 1 1 2 2 2 1 1 1 0 0 1 1 1 2 2 1 2 3 2 3 3 2 3 3 2 2 2 5 6
5 4 4 4 4 3 3 3 2 2 2 2 2 2 2 1 0 0 0 0 1 2 2 1 0 1 1 3 5 4 4 3 2 2 3 3 5 6
4 5 5 4 4 4 3 3 2 1 1 1 2 2 2 1 1 1 1 1 2 2 2 2 1 2 4 4 4 4 5 4 3 3 4 3 4 7
5 4 4 4 4 4 4 3 3 3 2 2 2 2 2 2 1 2 2 2 2 2 2 4 5 5 2 1 2 4 4 7 7 5 3 3 3 3
5 5 4 4 4 4 3 3 3 2 2 2 2 2 2 2 2 2 2 2 2 3 4 4 3 1 1 1 4 5 5 5 6 8 8 8 4 4
6 5 5 5 4 4 4 4 4 3 3 3 2 2 2 2 2 2 2 2 2 2 2 3 2 1 2 3 3 4 5 5 4 4 5 9 12 14
Wind_Direction
101 106 114 130 148 162 159 158 154 149 118 112 59 40 77 80 78 86 95 98 102 105 103 97 92 91 90 90 89 87 84 83 81 77 72 70 66 62
94 84 64 59 83 95 128 129 136 144 141 136 115 109 99 90 77 80 85 88 92 97 101 98 94 90 86 86 87 86 86 85 81 78 75 74 72 69
79 88 71 70 83 80 91 98 104 118 126 112 91 92 82 88 81 80 80 81 85 91 99 98 97 94 92 90 89 87 85 83 82 82 81 79 77 74
102 97 85 90 84 87 97 104 110 117 135 136 123 100 87 107 98 94 88 80 84 90 95 99 101 100 97 93 92 90 89 88 86 86 84 83 81 76
119 115 108 102 92 96 98 100 104 108 114 134 135 114 95 105 89 84 85 72 88 97 91 95 104 102 100 99 98 97 98 94 89 87 86 83 79 76
107 108 107 109 114 114 111 108 111 109 113 123 128 120 110 107 98 99 75 31 79 98 88 89 102 101 103 107 109 110 109 105 103 101 97 90 82 77
92 93 98 105 108 112 121 126 123 121 122 123 130 127 130 136 162 171 135 97 27 77 86 79 94 82 83 133 141 134 128 125 121 117 111 103 95 88
107 96 97 89 97 95 102 118 129 136 142 139 142 151 166 170 160 157 144 129 230 258 123 91 125 134 252 220 183 177 174 161 155 155 147 124 102 98
121 113 107 95 91 88 89 96 100 115 137 150 153 171 177 186 166 161 169 168 192 197 135 208 231 226 252 237 212 203 203 203 202 202 200 200 201 171
112 119 115 100 101 110 105 92 79 78 97 137 161 181 188 188 182 176 176 152 73 80 133 173 228 231 254 246 239 228 224 225 226 225 221 222 225 228
94 103 114 107 105 110 109 103 82 52 61 94 123 139 151 161 157 126 119 117 103 272 196 152 208 227 281 269 253 245 237 240 244 243 238 234 239 256
93 88 102 112 113 112 118 119 111 100 73 71 71 78 103 121 137 150 159 152 160 243 230 155 173 133 272 282 263 258 252 250 247 248 250 253 254 256
133 120 107 116 115 114 119 126 141 135 104 90 76 58 50 55 68 127 165 163 165 224 216 156 164 160 179 258 288 254 244 249 253 256 256 258 259 246
151 152 144 130 118 111 106 116 117 110 102 90 82 66 57 32 352 65 122 178 191 210 217 173 171 183 169 219 278 280 254 248 236 248 256 262 262 258
146 149 144 137 120 105 106 115 113 111 116 113 123 181 248 246 83 41 28 41 27 349 308 211 173 171 165 193 224 241 262 261 234 236 249 250 252 249
121 124 120 115 104 96 95 104 114 134 140 147 168 200 27 50 51 110 64 16 12 333 330 311 211 167 183 208 202 233 230 242 254 242 243 256 263 253
129 105 102 110 105 90 86 85 93 102 115 132 140 135 113 118 282 309 116 96 119 295 315 324 314 263 204 185 211 246 251 266 263 253 245 275 275 266
130 134 145 148 155 158 158 163 162 173 182 168 169 182 194 196 237 339 74 122 224 266 276 290 345 12 4 320 223 218 243 255 267 260 229 256 282 280
136 153 161 168 173 177 179 178 192 211 193 171 182 200 188 181 188 279 285 308 272 268 268 271 251 155 263 294 294 236 212 246 255 262 251 238 255 270
163 168 176 179 181 186 190 189 191 192 185 184 191 195 184 174 212 253 248 235 255 272 291 293 250 216 215 234 259 278 247 222 231 250 263 270 271 281
182 182 183 181 184 186 189 190 188 192 193 187 196 205 202 188 216 240 241 245 240 257 270 273 264 255 227 100 320 298 285 259 235 227 236 257 282 296
185 186 187 187 188 185 183 183 180 185 189 195 212 222 219 206 218 232 233 234 241 245 257 270 289 324 132 217 261 276 290 301 291 271 251 234 217 241
188 189 190 192 192 183 178 177 177 186 197 207 215 222 222 222 225 221 226 230 242 258 269 287 304 294 255 245 259 274 283 292 302 311 297 283 263 261
Height
1539 1539 1539 1539 1539 1539 1539 1539 1539 1539 1541 1541 1542 1542 1541 1541 1541 1540 1539 1539 1539 1540 1539 1539 1539 1539 1539 1539 1539 1538 1538 1537 1537 1536 1536 1536 1535 1535
1538 1538 1538 1538 1538 1538 1538 1538 1538 1538 1539 1540 1541 1542 1542 1541 1541 1540 1540 1540 1540 1540 1539 1539 1539 1539 1539 1538 1538 1538 1537 1536 1536 1535 1535 1534 1534 1533
1537 1537 1537 1537 1537 1537 1537 1537 1537 1538 1537 1539 1541 1541 1541 1541 1541 1541 1541 1540 1540 1540 1539 1539 1539 1538 1538 1538 1538 1537 1536 1536 1535 1535 1534 1534 1533 1533
1536 1536 1536 1536 1536 1536 1536 1536 1537 1537 1537 1538 1539 1540 1541 1541 1541 1541 1541 1541 1540 1540 1540 1539 1539 1539 1538 1538 1538 1537 1537 1536 1535 1535 1534 1534 1533 1533
1536 1536 1536 1536 1536 1535 1536 1536 1536 1537 1537 1538 1538 1540 1540 1541 1541 1541 1541 1541 1540 1540 1540 1540 1539 1539 1539 1539 1538 1537 1537 1536 1536 1535 1535 1534 1534 1533
1535 1535 1536 1536 1535 1535 1535 1536 1536 1537 1537 1538 1538 1539 1540 1541 1541 1541 1541 1541 1541 1541 1540 1540 1540 1540 1540 1539 1539 1538 1537 1536 1536 1536 1535 1534 1534 1533
1536 1535 1536 1536 1536 1536 1535 1536 1536 1536 1537 1538 1538 1539 1539 1540 1540 1541 1541 1541 1541 1541 1541 1541 1540 1540 1540 1540 1539 1538 1538 1537 1536 1536 1536 1535 1534 1533
1536 1536 1536 1536 1536 1536 1536 1536 1536 1536 1537 1537 1538 1538 1539 1539 1540 1541 1541 1540 1540 1541 1541 1541 1541 1540 1540 1540 1539 1538 1538 1537 1537 1537 1536 1535 1534 1533
1536 1536 1536 1536 1536 1536 1536 1536 1537 1537 1537 1538 1538 1538 1539 1539 1539 1540 1540 1540 1540 1540 1540 1539 1540 1540 1540 1539 1539 1538 1538 1537 1537 1536 1536 1535 1534 1533
1536 1536 1536 1536 1536 1537 1537 1537 1537 1537 1537 1538 1538 1539 1539 1539 1539 1540 1540 1540 1540 1539 1539 1539 1538 1538 1538 1538 1538 1538 1537 1537 1536 1536 1535 1534 1533 1532
1536 1536 1536 1536 1536 1537 1537 1537 1537 1537 1538 1538 1538 1539 1539 1539 1539 1539 1539 1538 1538 1538 1538 1538 1537 1537 1537 1537 1537 1537 1536 1536 1535 1534 1534 1533 1532 1531
1536 1536 1536 1536 1536 1537 1537 1537 1537 1537 1537 1538 1538 1538 1538 1538 1538 1538 1538 1538 1537 1537 1537 1537 1536 1536 1536 1536 1536 1535 1535 1534 1534 1533 1532 1532 1531 1530
1535 1535 1536 1536 1536 1536 1537 1537 1537 1537 1537 1538 1538 1538 1538 1538 1537 1537 1537 1537 1537 1536 1536 1536 1535 1535 1534 1534 1534 1534 1533 1532 1532 1531 1530 1529 1528 1527
1534 1535 1536 1536 1536 1536 1536 1537 1537 1537 1537 1537 1537 1537 1537 1537 1537 1537 1537 1537 1536 1536 1536 1535 1534 1534 1533 1532 1532 1532 1531 1530 1529 1528 1528 1527 1526 1525
1533 1534 1535 1536 1536 1536 1536 1536 1536 1537 1537 1537 1537 1537 1537 1537 1537 1536 1536 1536 1535 1535 1535 1534 1534 1533 1532 1531 1530 1529 1529 1528 1527 1526 1525 1524 1523 1522
1532 1533 1534 1534 1535 1536 1536 1536 1536 1536 1536 1536 1536 1537 1536 1536 1536 1535 1535 1534 1534 1533 1533 1533 1532 1532 1531 1530 1528 1527 1526 1525 1524 1523 1522 1521 1520 1518
1531 1532 1532 1533 1534 1534 1535 1535 1535 1535 1535 1535 1535 1535 1535 1535 1535 1534 1534 1533 1532 1532 1531 1531 1531 1530 1529 1528 1526 1525 1524 1523 1522 1520 1519 1517 1516 1515
1529 1529 1530 1531 1532 1532 1533 1533 1533 1533 1534 1534 1534 1534 1534 1534 1534 1533 1533 1532 1531 1530 1530 1529 1528 1528 1527 1526 1525 1523 1522 1520 1519 1518 1516 1514 1512 1511
1526 1527 1528 1529 1530 1531 1531 1531 1532 1532 1533 1533 1533 1533 1533 1532 1532 1531 1531 1530 1530 1529 1528 1527 1526 1525 1524 1522 1522 1521 1519 1517 1516 1514 1513 1511 1509 1507
1523 1525 1526 1527 1528 1529 1529 1530 1530 1531 1531 1531 1531 1531 1531 1530 1530 1529 1529 1528 1528 1527 1526 1525 1524 1523 1522 1520 1518 1517 1517 1515 1513 1511 1509 1507 1506 1504
1521 1522 1523 1524 1525 1526 1527 1528 1528 1529 1529 1529 1529 1529 1529 1528 1528 1527 1527 1526 1526 1525 1524 1523 1522 1521 1519 1518 1516 1514 1513 1512 1510 1508 1505 1503 1501 1499
1518 1519 1521 1522 1523 1524 1524 1525 1526 1526 1526 1527 1527 1527 1526 1526 1525 1525 1524 1524 1523 1522 1521 1520 1519 1518 1516 1515 1512 1511 1509 1508 1506 1505 1502 1501 1498 1495
1515 1516 1518 1519 1520 1521 1522 1522 1523 1523 1524 1524 1524 1524 1524 1523 1523 1522 1521 1521 1520 1519 1518 1517 1516 1514 1513 1511 1509 1508 1506 1504 1502 1500 1498 1496 1495 1492